Flag for Canada Weather past 2 weeks in Morden, Manitoba, Canada

Now
37 °F

Chilly.


Feels Like: 30 °F
Forecast: 36 / 53 °F
Wind: 9 mph from South

Location: Morden CDA CS


UV Index: 0 (Low)

Visibility: N/A


Pressure: 29.78 "Hg

Humidity: 91%

Dew point: 35 °F

Location of MordenLocation

Historic Weather in Morden

°F

Morden temperature yesterday

Maximum temperature yesterday: 48 °F (at 12:00 PM)
Minimum temperature yesterday: 32 °F (at 6:00 AM)
Average temperature yesterday: 40 °F

Past Weeks' High & Low Weather Summary

 TemperatureHumidityPressure
High67 °F (Apr 9, 3:00 PM)99% (Apr 12, 6:00 PM)30.46 "Hg (Apr 12, 6:00 PM)
Low9 °F (Apr 15, 4:00 AM)26% (Apr 17, 2:00 PM)29.33 "Hg (Apr 9, 3:00 PM)
Average35 °F66%30.04 "Hg
* Reported Apr 9 7:00 AM — Apr 24 7:00 AM, Morden, Weather by CustomWeather, © 2014

Note: Actual official high and low records may vary slightly from our data, if they occured in-between our weather recording intervals... More about our weather records

Advertising

Historic Weather Conditions — Data for Previous 24 hours

 ConditionsComfort  
Time TempWeatherWind HumidityBarometerVisibility
7:00 AM
Apr 24
37 °FChilly.10 mph98%29.78 "HgN/A
6:00 AM37 °FChilly.12 mph98%29.79 "HgN/A
5:00 AM37 °FChilly.14 mph97%29.79 "HgN/A
4:00 AM37 °FChilly.14 mph97%29.80 "HgN/A
3:00 AM37 °FChilly.14 mph97%29.80 "HgN/A
2:00 AM37 °FChilly.16 mph95%29.83 "HgN/A
1:00 AM38 °FChilly.17 mph93%29.83 "HgN/A
12:00 AM38 °FChilly.18 mph88%29.84 "HgN/A
11:00 PM
Apr 23
39 °FChilly.17 mph93%29.86 "HgN/A
10:00 PM40 °FChilly.22 mph91%29.86 "HgN/A
9:00 PM41 °FQuite cool.23 mph91%29.86 "HgN/A
8:00 PM42 °FQuite cool.20 mph88%29.85 "HgN/A
7:00 PM42 °FQuite cool.15 mph94%29.86 "HgN/A
6:00 PM40 °FQuite cool.18 mph99%29.86 "HgN/A
5:00 PM42 °FQuite cool.20 mph88%29.87 "HgN/A
4:00 PM44 °FQuite cool.18 mph82%29.87 "HgN/A
3:00 PM44 °FQuite cool.16 mph88%29.87 "HgN/A
2:00 PM44 °FQuite cool.15 mph89%29.88 "HgN/A
1:00 PM46 °FCool.13 mph64%29.89 "HgN/A
12:00 PM48 °FCool.17 mph53%29.87 "HgN/A
11:00 AM48 °FCool.17 mph52%29.86 "HgN/A
10:00 AM45 °FCool.16 mph56%29.88 "HgN/A
9:00 AM40 °FChilly.8 mph67%29.91 "HgN/A
8:00 AM36 °FChilly.9 mph73%29.93 "HgN/A
Weather by CustomWeather, © 2014

See weather overview